Terminal Aerodrome Forecast
Issued by NWS St Louis, MO

Home | Current Version | Previous Version | Text Only | Print | Product List | Glossary On
Versions: 1 2 3 4 5 6 7 8 9 10 11 12 13 14 15 16 17 18 19 20 21 22 23 24 25 26 27 28 29 30 31 32
000
FTUS43 KLSX 190900 AAA
TAFSTL
TAF AMD
KSTL 190910Z 1909/2012 08003KT 6SM BR OVC025
     FM191200 VRB03KT 5SM BR SCT007 OVC012
     FM191600 09003KT P6SM OVC018
     FM192200 11004KT P6SM OVC020=

USA.gov is the U.S. government's official web portal to all federal, state and local government web resources and services.